031  
ASUS43 KEAX 241605  
RWREAX  
 
WEATHER ROUNDUP FOR EASTERN KANSAS AND NORTHWEST MISSOURI  
NATIONAL WEATHER SERVICE KANSAS CITY/PLEASANT HILL MO  
1000 AM CST MON FEB 24 2020  
 
KSZ040-057-103>105-MOZ028-029-037-043-241700-   
..KANSAS CITY METROPOLITAN AREA
 
 
 
CITY SKY/WX TMP DP RH WIND PRES REMARKS
 
K.C. INTL LGT RAIN 39 37 92 NE20 29.72F WCI 29  
K.C. DOWNTOWN CLOUDY 40 37 89 N14G24 29.69F WCI 32  
LEES SUMMIT CLOUDY 42 38 85 NE17G28 29.68F WCI 34  
OLATHE - IXD CLOUDY 42 39 89 NE21G31 29.67F WCI 33  
OLATHE - OJC CLOUDY 40 39 97 NE21G30 29.66F WCI 30  
LAWRENCE CLOUDY 43 39 86 NE17G33 29.70F FOG  
 

 
 
MOZ001>008-011>017-020>025-030>033-038>040-044>046-053-054-241700-   
..NORTHERN AND CENTRAL MISSOURI
 
 
 
CITY SKY/WX TMP DP RH WIND PRES REMARKS
 
ST. JOSEPH LGT RAIN 37 34 89 NE10 29.78F WCI 30  
MOSBY DRIZZLE 37 36 93 NE10G17 29.73F WCI 30  
HARRISONVILLE CLOUDY 43 43 100 NE17G23 29.66F WCI 35  
WHITEMAN AFB LGT RAIN 44 44 100 NE13 29.61F  
CLINTON LGT RAIN 45 45 100 E16 29.62F  
SEDALIA RAIN 45 43 93 NE14G20 29.66F FOG  
MARSHALL CLOUDY 41 41 100 W13 29.71F WCI 34  
CHILLICOTHE N/A 36 34 92 N9 29.76F WCI 29  
KIRKSVILLE MIX PCPN 37 36 96 NE15 29.77F WCI 28  
 

 
 
MOZ041-047>049-056>058-063>065-088>090-097-241700-   
..EASTERN AND SOUTHERN MISSOURI
 
 
 
CITY SKY/WX TMP DP RH WIND PRES REMARKS
 
ST. LOUIS INTL LGT RAIN 44 42 93 E10 29.76F FOG  
SPIRIT OF STL LGT RAIN 45 44 97 E10 29.74F VSB 1  
COLUMBIA CLOUDY 45 43 93 E13 29.68F  
JEFFERSON CITY RAIN 46 42 86 E13 29.68F FOG  
MEXICO CLOUDY 41 41 100 NE7 29.71F FOG  
HANNIBAL MIX PCPN 43 41 93 NE8 29.74F  
ROLLA CLOUDY 44 43 96 E10 29.66F FOG  
LEBANON FOG 45 45 100 E10 29.61F VSB 1/2  
OSAGE BEACH LGT RAIN 45 44 97 NE10 29.64F FOG  
SPRINGFIELD CLOUDY 49 49 100 SE15 29.54F  
BRANSON PTSUNNY 54 54 100 SE10 29.56F FOG  
JOPLIN CLOUDY 54 49 83 SW14G23 29.53S  
WEST PLAINS FOG 47 46 97 SE7G18 29.63F VSB 1/4  
SIKESTON CLOUDY 46 46 100 SE9 29.75F FOG  
 

 
 
IAZ060-094-KSZ022-034>040-054-083-096-NEZ052-066-093-241700-    
..KANSAS...SOUTHEAST NEBRASKA AND IOWA
 
 
 
CITY SKY/WX TMP DP RH WIND PRES REMARKS
 
TOPEKA CLOUDY 43 38 82 N17G25 29.73S  
MANHATTAN CLOUDY 39 35 86 N10G18 29.77F WCI 32  
EMPORIA LGT RAIN 42 41 96 N20G29 29.67R WCI 33  
CHANUTE CLOUDY 47 43 86 N15G23 29.60R  
SALINA CLOUDY 40 34 79 N16 29.81S WCI 31  
WICHITA LGT RAIN 44 40 85 N18G26 29.70R FOG  
OMAHA PTSUNNY 37 26 64 NE7 29.89F WCI 32  
LINCOLN SUNNY 38 24 57 NE13 29.88F WCI 30  
FALLS CITY N/A 39 27 62 N13 29.80F WCI 31  
LAMONI PTSUNNY 36 27 69 NE15G22 29.81F WCI 27  
DES MOINES CLOUDY 35 26 69 NE14 29.89F WCI 26  
 

 
 
 
 
CLICK HERE TO GO TO PREVIOUS BULLETINS.

The Nexlab MO Page
The Nexlab KS Page Main Text Page